Aktuell
News
Messwerte
Diagramme
Archiv
Wettervorhersage
Regen
Wettergefahren

Astro & Geo
Health
Pegel
Gästebuch
Kontakt
Impressum
Datenschutz
App

Wolkig bei 18.2 °C – Luftdruck: 1012.3 hPa – Wind: S 4.7 km/h
Messwerte von 11:49 Uhr; Warnsymbol: Datenbasis DWD; Wetterzustand powered by
Übersicht
Heute
Gestern
Vor 1 Jahr
Info
Gestern – Der Tag im Rückblick
 
Messwerte von Mittwoch, 21.10.2020
Symbol
Zeitpunkt
Wetter-
zustand
Zeitpunkt
Temperatur
gefühlt
Zeitpunkt
Luftfeuchte
Taupunkt
Zeitpunkt
Luftdruck
Zeitpunkt
Wind
Zeitpunkt
Windböen
Max 15 Min.
Wind-
richtung
Zeitpunkt
Regen
Summe 1 h
Regenrate
Max 15 Min.
UV-Index
Max 15 Min.
Pegel Köln
Zeitpunkt
Warnlage
Zeitpunkt
00:15 Leichter Regen1 11.8 °C
11.8 °C
92 %
10.4 °C
1008.7 hPa 3.2 km/h
1 Bft
4.7 km/h
1 Bft
OSO -
0.0 mm/h
0.0 207 cm
00:30 Leichter Regen1 11.6 °C
11.6 °C
93 %
10.4 °C
1008.5 hPa 3.2 km/h
1 Bft
6.5 km/h
2 Bft
OSO -
0.0 mm/h
0.0 207 cm
00:45 Tröpfeln4 11.6 °C
11.6 °C
94 %
10.5 °C
1008.4 hPa 6.5 km/h
2 Bft
11.2 km/h
2 Bft
OSO -
0.0 mm/h
0.0 206 cm
01:00 Leichter Regen1 11.6 °C
11.6 °C
94 %
10.5 °C
1008.2 hPa 6.5 km/h
2 Bft
14.4 km/h
3 Bft
O 0.50 mm
0.0 mm/h
0.0 206 cm
01:15 Tröpfeln4 11.5 °C
11.5 °C
94 %
10.4 °C
1008.1 hPa 6.5 km/h
2 Bft
16.2 km/h
3 Bft
OSO -
0.0 mm/h
0.0 206 cm
01:30 Leichter Regen1 11.5 °C
11.5 °C
94 %
10.4 °C
1007.9 hPa 6.5 km/h
2 Bft
14.4 km/h
3 Bft
OSO -
0.0 mm/h
0.0 206 cm
01:45 Leichter Regen2 11.5 °C
11.5 °C
94 %
10.4 °C
1007.9 hPa 4.7 km/h
1 Bft
11.2 km/h
2 Bft
OSO -
0.0 mm/h
0.0 206 cm
02:00 Tröpfeln4 11.5 °C
11.5 °C
94 %
10.4 °C
1007.7 hPa 4.7 km/h
1 Bft
14.4 km/h
3 Bft
OSO 0.25 mm
0.0 mm/h
0.0 206 cm
02:15 Leichter Regen1 11.5 °C
11.5 °C
95 %
10.6 °C
1007.7 hPa 7.9 km/h
2 Bft
17.6 km/h
3 Bft
SSO -
0.0 mm/h
0.0 206 cm
02:30 Leichter Regen1 11.6 °C
11.6 °C
95 %
10.7 °C
1007.4 hPa 6.5 km/h
2 Bft
17.6 km/h
3 Bft
O -
0.0 mm/h
0.0 206 cm
02:45 Bedeckt2 11.6 °C
11.6 °C
94 %
10.5 °C
1007.3 hPa 7.9 km/h
2 Bft
19.4 km/h
3 Bft
O -
0.0 mm/h
0.0 206 cm
03:00 Bedeckt2 11.6 °C
11.6 °C
94 %
10.5 °C
1007.2 hPa 7.9 km/h
2 Bft
14.4 km/h
3 Bft
SO 0.28 mm
0.0 mm/h
0.0 206 cm
03:15 Bedeckt2 11.6 °C
11.6 °C
94 %
10.5 °C
1007.2 hPa 6.5 km/h
2 Bft
16.2 km/h
3 Bft
OSO -
0.0 mm/h
0.0 206 cm
03:30 Bedeckt2 11.6 °C
11.6 °C
94 %
10.5 °C
1007.1 hPa 6.5 km/h
2 Bft
14.4 km/h
3 Bft
OSO -
0.0 mm/h
0.0 206 cm
03:45 Tröpfeln4 11.6 °C
11.6 °C
94 %
10.5 °C
1007.0 hPa 6.5 km/h
2 Bft
19.4 km/h
3 Bft
OSO -
0.0 mm/h
0.0 206 cm
04:00 Tröpfeln4 11.6 °C
11.6 °C
94 %
10.5 °C
1006.8 hPa 4.7 km/h
1 Bft
14.4 km/h
3 Bft
SSO 0.00 mm
0.0 mm/h
0.0 206 cm
04:15 Leichter Regen1 11.6 °C
11.6 °C
93 %
10.4 °C
1006.4 hPa 4.7 km/h
1 Bft
17.6 km/h
3 Bft
OSO -
0.0 mm/h
0.0 206 cm
04:30 Tröpfeln4 11.5 °C
11.5 °C
94 %
10.4 °C
1006.3 hPa 6.5 km/h
2 Bft
16.2 km/h
3 Bft
SO -
0.0 mm/h
0.0 205 cm
04:45 Tröpfeln4 11.5 °C
11.5 °C
93 %
10.3 °C
1006.2 hPa 6.5 km/h
2 Bft
19.4 km/h
3 Bft
SO -
0.0 mm/h
0.0 206 cm
05:00 Leichter Regen1 11.4 °C
11.4 °C
93 %
10.2 °C
1006.2 hPa 6.5 km/h
2 Bft
16.2 km/h
3 Bft
SSO 0.50 mm
0.0 mm/h
0.0 206 cm
05:15 Tröpfeln4 11.4 °C
11.4 °C
93 %
10.2 °C
1006.2 hPa 4.7 km/h
1 Bft
16.2 km/h
3 Bft
O -
0.0 mm/h
0.0 206 cm
05:30 Leichter Regen1 11.4 °C
11.4 °C
93 %
10.2 °C
1006.0 hPa 6.5 km/h
2 Bft
14.4 km/h
3 Bft
OSO -
0.0 mm/h
0.0 206 cm
05:45 Leichter Regen1 11.3 °C
11.3 °C
94 %
10.3 °C
1005.8 hPa 7.9 km/h
2 Bft
14.4 km/h
3 Bft
OSO -
0.0 mm/h
0.0 206 cm
06:00 Leichter Regen1 11.2 °C
11.2 °C
94 %
10.2 °C
1005.7 hPa 4.7 km/h
1 Bft
16.2 km/h
3 Bft
OSO 0.58 mm
1.0 mm/h
0.0 206 cm
06:15 Leichter Regen1 11.1 °C
11.1 °C
94 %
10.1 °C
1005.1 hPa 9.7 km/h
2 Bft
16.2 km/h
3 Bft
OSO -
1.0 mm/h
0.0 206 cm
06:30 Leichter Regen2 11.1 °C
11.1 °C
94 %
10.1 °C
1004.9 hPa 9.7 km/h
2 Bft
17.6 km/h
3 Bft
OSO -
0.0 mm/h
0.0 206 cm
06:45 Bedeckt2 11.1 °C
11.1 °C
94 %
10.1 °C
1004.9 hPa 7.9 km/h
2 Bft
16.2 km/h
3 Bft
SO -
0.0 mm/h
0.0 206 cm
07:00 Bedeckt2 11.2 °C
11.2 °C
94 %
10.2 °C
1004.8 hPa 7.9 km/h
2 Bft
16.2 km/h
3 Bft
O 0.25 mm
0.0 mm/h
0.0 206 cm
07:15 Tröpfeln4 11.3 °C
11.3 °C
93 %
10.1 °C
1004.8 hPa 6.5 km/h
2 Bft
17.6 km/h
3 Bft
OSO -
0.0 mm/h
0.0 206 cm
07:30 Leichter Regen1 11.3 °C
11.3 °C
93 %
10.1 °C
1004.7 hPa 4.7 km/h
1 Bft
17.6 km/h
3 Bft
OSO -
0.0 mm/h
0.0 206 cm
07:45 Tröpfeln4 11.4 °C
11.4 °C
93 %
10.2 °C
1004.7 hPa 6.5 km/h
2 Bft
16.2 km/h
3 Bft
O -
0.0 mm/h
0.0 206 cm
08:00 Leichter Regen1 11.4 °C
11.4 °C
92 %
10.1 °C
1004.8 hPa 4.7 km/h
1 Bft
16.2 km/h
3 Bft
SO 0.25 mm
0.0 mm/h
0.0 206 cm
08:15 Leichter Regen1 11.6 °C
11.6 °C
92 %
10.3 °C
1004.9 hPa 4.7 km/h
1 Bft
16.2 km/h
3 Bft
OSO -
0.0 mm/h
0.0 206 cm
08:30 Leichter Regen1 11.5 °C
11.5 °C
93 %
10.3 °C
1005.0 hPa 4.7 km/h
1 Bft
14.4 km/h
3 Bft
SO -
0.0 mm/h
0.0 206 cm
08:45 Leichter Regen1 11.4 °C
11.4 °C
93 %
10.2 °C
1005.2 hPa 6.5 km/h
2 Bft
13.0 km/h
3 Bft
NNO -
2.0 mm/h
0.0 206 cm
09:00 Leichter Regen1 11.5 °C
11.5 °C
94 %
10.4 °C
1005.1 hPa 6.5 km/h
2 Bft
22.7 km/h
4 Bft
SSO 1.61 mm
2.0 mm/h
0.0 206 cm
09:15 Leichter Regen1 11.5 °C
11.5 °C
94 %
10.4 °C
1004.8 hPa 7.9 km/h
2 Bft
19.4 km/h
3 Bft
OSO -
2.6 mm/h
0.0 206 cm
09:30 Leichter Regen1 11.6 °C
11.6 °C
95 %
10.7 °C
1005.4 hPa 6.5 km/h
2 Bft
14.4 km/h
3 Bft
OSO -
3.2 mm/h
0.0 206 cm
09:45 Leichter Regen1 11.7 °C
11.7 °C
94 %
10.6 °C
1005.2 hPa 7.9 km/h
2 Bft
16.2 km/h
3 Bft
SO -
3.4 mm/h
0.0 206 cm
10:00 Bedeckt2 11.8 °C
11.8 °C
94 %
10.7 °C
1004.9 hPa 7.9 km/h
2 Bft
16.2 km/h
3 Bft
SO 2.08 mm
1.4 mm/h
0.0 206 cm
10:15 Leichter Regen1 11.9 °C
11.9 °C
93 %
10.6 °C
1005.1 hPa 7.9 km/h
2 Bft
20.9 km/h
4 Bft
O -
0.0 mm/h
0.0 206 cm
10:30 Wolkig3 12.0 °C
12.0 °C
93 %
10.7 °C
1005.0 hPa 6.5 km/h
2 Bft
19.4 km/h
3 Bft
SO -
0.0 mm/h
0.0 206 cm
10:45 Bedeckt2 12.1 °C
12.1 °C
91 %
10.5 °C
1005.2 hPa 7.9 km/h
2 Bft
20.9 km/h
4 Bft
OSO -
0.0 mm/h
0.0 205 cm
11:00 Wolkig3 12.1 °C
12.1 °C
90 %
10.4 °C
1005.0 hPa 6.5 km/h
2 Bft
17.6 km/h
3 Bft
SO 0.00 mm
0.0 mm/h
0.0 206 cm
11:15 Wolkig3 12.4 °C
12.4 °C
91 %
10.8 °C
1004.8 hPa 4.7 km/h
1 Bft
16.2 km/h
3 Bft
OSO -
0.0 mm/h
0.0 206 cm
11:30 Wolkig3 12.5 °C
12.5 °C
89 %
10.6 °C
1004.8 hPa 4.7 km/h
1 Bft
11.2 km/h
2 Bft
OSO -
0.0 mm/h
0.0 205 cm
11:45 Wolkig3 12.4 °C
12.4 °C
89 %
10.5 °C
1004.6 hPa 7.9 km/h
2 Bft
17.6 km/h
3 Bft
OSO -
0.0 mm/h
0.0 204 cm
12:00 Wolkig3 12.5 °C
12.5 °C
88 %
10.4 °C
1004.4 hPa 6.5 km/h
2 Bft
17.6 km/h
3 Bft
SSO 0.00 mm
0.0 mm/h
0.0 204 cm
12:15 Wolkig3 12.6 °C
12.6 °C
87 %
10.4 °C
1004.3 hPa 4.7 km/h
1 Bft
13.0 km/h
3 Bft
SSO -
0.0 mm/h
0.0 204 cm
12:30 Wolkig3 13.1 °C
13.1 °C
83 %
10.2 °C
1004.1 hPa 6.5 km/h
2 Bft
14.4 km/h
3 Bft
SSO -
0.0 mm/h
0.0 205 cm
12:45 Stark bewölkt2 14.1 °C
14.1 °C
78 %
10.2 °C
1004.0 hPa 7.9 km/h
2 Bft
20.9 km/h
4 Bft
S -
0.0 mm/h
0.0 205 cm
13:00 Stark bewölkt2 14.1 °C
14.1 °C
78 %
10.2 °C
1003.8 hPa 6.5 km/h
2 Bft
16.2 km/h
3 Bft
SSO 0.00 mm
0.0 mm/h
0.0 206 cm
13:15 Bedeckt2 14.5 °C
14.5 °C
78 %
10.5 °C
1003.6 hPa 6.5 km/h
2 Bft
13.0 km/h
3 Bft
SO -
0.0 mm/h
0.0 205 cm
13:30 Bedeckt2 14.5 °C
14.5 °C
78 %
10.5 °C
1003.4 hPa 4.7 km/h
1 Bft
11.2 km/h
2 Bft
OSO -
0.0 mm/h
0.0 203 cm
13:45 Stark bewölkt2 14.5 °C
14.5 °C
78 %
10.6 °C
1003.1 hPa 6.5 km/h
2 Bft
13.0 km/h
3 Bft
OSO -
0.0 mm/h
0.0 204 cm
14:00 Stark bewölkt3 15.7 °C
15.7 °C
73 %
10.8 °C
1003.3 hPa 4.7 km/h
1 Bft
20.9 km/h
4 Bft
SW 0.00 mm
0.0 mm/h
0.0 205 cm
14:15 Stark bewölkt3 17.8 °C
17.8 °C
65 %
11.0 °C
1002.9 hPa 7.9 km/h
2 Bft
24.1 km/h
4 Bft
SO -
0.0 mm/h
0.0 204 cm
14:30 Stark bewölkt2 18.3 °C
18.3 °C
62 %
10.7 °C
1002.7 hPa 6.5 km/h
2 Bft
20.9 km/h
4 Bft
SSW -
0.0 mm/h
0.0 203 cm
14:45 Leicht bewölkt3 19.3 °C
19.3 °C
60 %
11.3 °C
1002.5 hPa 9.7 km/h
2 Bft
22.7 km/h
4 Bft
SSW -
0.0 mm/h
1.6 204 cm
15:00 Leicht bewölkt3 20.3 °C
20.3 °C
57 %
11.4 °C
1002.4 hPa 11.2 km/h
2 Bft
43.6 km/h
6 Bft
S 0.00 mm
0.0 mm/h
1.7 205 cm
15:15 Wolkig3 20.3 °C
20.3 °C
58 %
11.7 °C
1002.2 hPa 7.9 km/h
2 Bft
25.9 km/h
4 Bft
SW -
0.0 mm/h
1.6 204 cm
15:30 Leicht bewölkt2 21.3 °C
21.3 °C
55 %
11.8 °C
1002.3 hPa 9.7 km/h
2 Bft
30.6 km/h
5 Bft
SSW -
0.0 mm/h
1.8 204 cm
15:45 Leicht bewölkt2 21.7 °C
21.7 °C
55 %
12.1 °C
1002.3 hPa 7.9 km/h
2 Bft
24.1 km/h
4 Bft
SSW -
0.0 mm/h
1.6 204 cm
16:00 Leichter Regen1 21.4 °C
21.4 °C
55 %
11.9 °C
1002.4 hPa 9.7 km/h
2 Bft
24.1 km/h
4 Bft
SSW 0.28 mm
0.0 mm/h
1.3 203 cm
16:15 Leicht bewölkt2 21.6 °C
21.6 °C
54 %
11.8 °C
1002.3 hPa 13.0 km/h
3 Bft
28.8 km/h
5 Bft
SW -
0.0 mm/h
1.2 204 cm
16:30 Wolkig2 21.6 °C
21.6 °C
55 %
12.1 °C
1002.2 hPa 7.9 km/h
2 Bft
28.8 km/h
5 Bft
SW -
0.0 mm/h
1.1 203 cm
16:45 Wolkig2 21.6 °C
21.6 °C
55 %
12.1 °C
1002.3 hPa 11.2 km/h
2 Bft
30.6 km/h
5 Bft
WSW -
0.0 mm/h
0.9 203 cm
17:00 Wolkig2 21.5 °C
21.5 °C
55 %
12.0 °C
1002.5 hPa 9.7 km/h
2 Bft
32.0 km/h
5 Bft
S 0.00 mm
0.0 mm/h
0.5 203 cm
17:15 Leicht bewölkt2 21.6 °C
21.6 °C
56 %
12.3 °C
1002.4 hPa 9.7 km/h
2 Bft
27.4 km/h
4 Bft
SSW -
0.0 mm/h
0.0 203 cm
17:30 Leicht bewölkt2 21.6 °C
21.6 °C
56 %
12.3 °C
1002.4 hPa 9.7 km/h
2 Bft
20.9 km/h
4 Bft
S -
0.0 mm/h
0.0 203 cm
17:45 Leicht bewölkt2 21.3 °C
21.3 °C
56 %
12.1 °C
1002.6 hPa 14.4 km/h
3 Bft
28.8 km/h
5 Bft
SSW -
0.0 mm/h
0.0 203 cm
18:00 Leicht bewölkt2 21.0 °C
21.0 °C
58 %
12.3 °C
1002.9 hPa 11.2 km/h
2 Bft
28.8 km/h
5 Bft
SSW 0.00 mm
0.0 mm/h
0.0 203 cm
18:15 Leicht bewölkt2 20.7 °C
20.7 °C
59 %
12.3 °C
1003.2 hPa 13.0 km/h
3 Bft
33.8 km/h
5 Bft
SW -
0.0 mm/h
0.0 203 cm
18:30 Leicht bewölkt3 20.4 °C
20.4 °C
59 %
12.0 °C
1003.5 hPa 13.0 km/h
3 Bft
28.8 km/h
5 Bft
S -
0.0 mm/h
0.0 203 cm
18:45 Leicht bewölkt2 20.3 °C
20.3 °C
59 %
11.9 °C
1003.7 hPa 13.0 km/h
3 Bft
37.1 km/h
5 Bft
SSW -
0.0 mm/h
0.0 203 cm
19:00 Leicht bewölkt2 19.9 °C
19.9 °C
61 %
12.1 °C
1003.9 hPa 11.2 km/h
2 Bft
25.9 km/h
4 Bft
SSW 0.00 mm
0.0 mm/h
0.0 203 cm
19:15 Leicht bewölkt2 19.7 °C
19.7 °C
62 %
12.1 °C
1004.1 hPa 9.7 km/h
2 Bft
22.7 km/h
4 Bft
SSW -
0.0 mm/h
0.0 203 cm
19:30 Leicht bewölkt2 19.6 °C
19.6 °C
63 %
12.3 °C
1004.3 hPa 11.2 km/h
2 Bft
25.9 km/h
4 Bft
SW -
0.0 mm/h
0.0 203 cm
19:45 Leicht bewölkt2 19.6 °C
19.6 °C
64 %
12.5 °C
1004.6 hPa 9.7 km/h
2 Bft
25.9 km/h
4 Bft
SSW -
0.0 mm/h
0.0 203 cm
20:00 Leicht bewölkt2 19.4 °C
19.4 °C
64 %
12.3 °C
1004.7 hPa 9.7 km/h
2 Bft
22.7 km/h
4 Bft
SSW 0.00 mm
0.0 mm/h
0.0 203 cm
20:15 Leicht bewölkt2 19.3 °C
19.3 °C
64 %
12.3 °C
1005.0 hPa 9.7 km/h
2 Bft
22.7 km/h
4 Bft
SW -
0.0 mm/h
0.0 202 cm
20:30 Wolkig3 19.2 °C
19.2 °C
64 %
12.2 °C
1005.1 hPa 9.7 km/h
2 Bft
20.9 km/h
4 Bft
WSW -
0.0 mm/h
0.0 202 cm
20:45 Wolkenlos3 19.1 °C
19.1 °C
64 %
12.1 °C
1005.4 hPa 7.9 km/h
2 Bft
19.4 km/h
3 Bft
SW -
0.0 mm/h
0.0 203 cm
21:00 Wolkenlos3 19.0 °C
19.0 °C
64 %
12.0 °C
1005.7 hPa 6.5 km/h
2 Bft
20.9 km/h
4 Bft
SSW 0.00 mm
0.0 mm/h
0.0 202 cm
21:15 Wolkenlos3 18.7 °C
18.7 °C
65 %
11.9 °C
1006.0 hPa 6.5 km/h
2 Bft
17.6 km/h
3 Bft
SSW -
0.0 mm/h
0.0 202 cm
21:30 Wolkenlos3 18.7 °C
18.7 °C
66 %
12.2 °C
1006.2 hPa 6.5 km/h
2 Bft
19.4 km/h
3 Bft
SSW -
0.0 mm/h
0.0 202 cm
21:45 Wolkenlos3 18.6 °C
18.6 °C
67 %
12.2 °C
1006.4 hPa 6.5 km/h
2 Bft
19.4 km/h
3 Bft
SSW -
0.0 mm/h
0.0 203 cm
22:00 Wolkenlos3 18.7 °C
18.7 °C
67 %
12.4 °C
1006.6 hPa 9.7 km/h
2 Bft
24.1 km/h
4 Bft
S 0.00 mm
0.0 mm/h
0.0 202 cm
22:15 Wolkenlos3 18.5 °C
18.5 °C
68 %
12.3 °C
1006.9 hPa 4.7 km/h
1 Bft
16.2 km/h
3 Bft
S -
0.0 mm/h
0.0 203 cm
22:30 Leicht bewölkt2 18.2 °C
18.2 °C
70 %
12.5 °C
1007.0 hPa 3.2 km/h
1 Bft
14.4 km/h
3 Bft
SSO -
0.0 mm/h
0.0 203 cm
22:45 Leicht bewölkt2 18.0 °C
18.0 °C
71 %
12.5 °C
1007.2 hPa 3.2 km/h
1 Bft
11.2 km/h
2 Bft
S -
0.0 mm/h
0.0 203 cm
23:00 Leicht bewölkt2 18.0 °C
18.0 °C
71 %
12.5 °C
1007.4 hPa 4.7 km/h
1 Bft
13.0 km/h
3 Bft
SO 0.00 mm
0.0 mm/h
0.0 202 cm
23:15 Leicht bewölkt2 18.0 °C
18.0 °C
71 %
12.5 °C
1007.6 hPa 4.7 km/h
1 Bft
14.4 km/h
3 Bft
S -
0.0 mm/h
0.0 203 cm
23:30 Leicht bewölkt3 18.0 °C
18.0 °C
71 %
12.5 °C
1007.8 hPa 4.7 km/h
1 Bft
14.4 km/h
3 Bft
SSW -
0.0 mm/h
0.0 203 cm
23:45 Leicht bewölkt2 18.3 °C
18.3 °C
69 %
12.4 °C
1008.0 hPa 6.5 km/h
2 Bft
17.6 km/h
3 Bft
SW -
0.0 mm/h
0.0 202 cm
00:00 Leicht bewölkt2 17.8 °C
17.8 °C
71 %
12.3 °C
1008.2 hPa 4.7 km/h
1 Bft
11.2 km/h
2 Bft
SSW 0.00 mm
0.0 mm/h
0.0 203 cm
Datenbasis Wetterzustand: ¹ Wetterstation Köln-Nippes (Stellwerk), ² powered by , ³ powered by OpenWeatherMap, CC BY-SA 4.0; Warnlage: DWD, Pegelonline, LANUV; Pegel Köln: Pegelonline
 
Extrem- und Durchschnittswerte
  Temperatur Luftfeuchte Luftdruck Wind Windböen Wind-
richtung
Regen UV-Index Pegel Köln KKT
Min

Max

Ø
11.1 °C
06:05 Uhr
21.8 °C
15:44 Uhr
15.5 °C
54.0 %
15:29 Uhr
95.0 %
01:39 Uhr
77.7 %
1002.0 hPa
15:20 Uhr
1008.8 hPa
00:00 Uhr
1005.1 hPa
 
 
14.4 km/h
17:36 Uhr
7.3 km/h
 
 
43.6 km/h
14:52 Uhr
 
 
 
OSO
 
 
 
 
6.58 mm
 
 
 
 
1.8
15:13 Uhr
 
202 cm
20:15 Uhr
207 cm
00:15 Uhr
 

NT
  gefühlt Taupunkt   Wind Windböen   Regenrate Ozon Sonne Mond
Min

Max

Ø
9.2 °C
06:21 Uhr
21.8 °C
15:44 Uhr
 
10.0 °C
07:00 Uhr
12.7 °C
23:05 Uhr
11.1 °C
   
 
3 Bft
17:36 Uhr
7.3 km/h
 
 
6 Bft
14:52 Uhr
 
   
 
3.4 mm/h
09:28 Uhr
 
 
Chorweiler
73 μg/m³
16:00 Uhr
 
▲ 08:06 Uhr
▼ 18:27 Uhr
▲ 14:01 Uhr
▼ 21:42 Uhr
KKT = Klimatologischer Kenntag: ET = Eistag, FT = Frosttag, KT = Kalter Tag, ST = Sommertag, HT = Hitzetag, TN = Tropennacht, NT = Niederschlagstag, SH = Schneehöhe (Max Tag); Datenbasis Ozon: LANUV, Land NRW, dl-de/by-2-0
 
Detaillierte Warnlage
WINDBÖEN
21.10.20, 09:00 Uhr bis 20:00 Uhr
Es treten Windböen mit Geschwindigkeiten zwischen 50 km/h (14m/s, 28kn, Bft 7) und 60 km/h (17m/s, 33kn, Bft 7) aus südwestlicher Richtung auf. In exponierten Lagen muss mit Sturmböen bis 70 km/h (20m/s, 38kn, Bft 8) gerechnet werden.















21.10.20

21.10.20

21.10.20

21.10.20

21.10.20

21.10.20

21.10.20
Datenbasis: DWD, Pegelonline, LANUV
Es ist ein Fehler aufgetreten.